Time,TemperatureF,DewpointF,PressureIn,WindDirection,WindDirectionDegrees,WindSpeedMPH,WindSpeedGustMPH,Humidity,HourlyPrecipIn,Conditions,Clouds,dailyrainin,SoftwareType,DateUTC
2013-08-02 00:02:00,65.6,65.0,30.04,SSE,155,2.0,2.0,99,0.01,,,0.48,weatherlink.com 1.10,2013-08-02 04:02:00,
2013-08-02 00:17:00,65.6,65.0,30.04,SSE,155,0.0,1.0,99,0.01,,,0.48,weatherlink.com 1.10,2013-08-02 04:17:00,
2013-08-02 00:32:00,65.6,65.0,30.03,SSE,155,0.0,1.0,99,0.02,,,0.49,weatherlink.com 1.10,2013-08-02 04:32:00,
2013-08-02 00:47:00,65.6,65.0,30.02,SSE,155,0.0,1.0,99,0.02,,,0.50,weatherlink.com 1.10,2013-08-02 04:47:00,
2013-08-02 01:02:00,65.6,65.0,30.02,SSE,155,0.0,1.0,99,0.02,,,0.50,weatherlink.com 1.10,2013-08-02 05:02:00,
2013-08-02 01:17:00,65.6,65.0,30.01,SSE,155,0.0,1.0,99,0.02,,,0.50,weatherlink.com 1.10,2013-08-02 05:17:00,
2013-08-02 01:32:00,65.5,65.0,30.01,SSE,155,0.0,1.0,99,0.01,,,0.50,weatherlink.com 1.10,2013-08-02 05:32:00,
2013-08-02 01:47:00,65.5,65.0,30.01,SSE,155,0.0,1.0,99,0.00,,,0.50,weatherlink.com 1.10,2013-08-02 05:47:00,
2013-08-02 02:02:00,65.6,65.0,30.00,SSE,155,0.0,2.0,99,0.00,,,0.50,weatherlink.com 1.10,2013-08-02 06:02:00,
2013-08-02 02:17:00,65.5,65.0,30.00,SE,145,0.0,1.0,99,0.00,,,0.50,weatherlink.com 1.10,2013-08-02 06:17:00,
2013-08-02 02:32:00,65.5,65.0,30.00,South,174,0.0,3.0,99,0.00,,,0.50,weatherlink.com 1.10,2013-08-02 06:32:00,
2013-08-02 02:47:00,65.5,65.0,29.99,SE,140,1.0,2.0,99,0.00,,,0.50,weatherlink.com 1.10,2013-08-02 06:47:00,
2013-08-02 03:02:00,65.3,65.0,29.99,SE,143,1.0,3.0,99,0.00,,,0.50,weatherlink.com 1.10,2013-08-02 07:02:00,
2013-08-02 03:17:00,65.3,65.0,29.99,SE,146,0.0,2.0,99,0.00,,,0.50,weatherlink.com 1.10,2013-08-02 07:17:00,
2013-08-02 03:32:00,65.0,65.0,30.00,WNW,296,0.0,2.0,99,0.00,,,0.50,weatherlink.com 1.10,2013-08-02 07:32:00,
2013-08-02 03:47:00,64.7,64.0,29.99,NW,304,0.0,3.0,98,0.00,,,0.50,weatherlink.com 1.10,2013-08-02 07:47:00,
2013-08-02 04:02:00,64.3,64.0,30.00,NNW,341,0.0,3.0,98,0.00,,,0.50,weatherlink.com 1.10,2013-08-02 08:02:00,
2013-08-02 04:17:00,64.0,64.0,30.01,NW,321,1.0,4.0,98,0.00,,,0.50,weatherlink.com 1.10,2013-08-02 08:17:00,
2013-08-02 04:47:00,63.5,63.0,30.01,East,86,0.0,1.0,98,0.00,,,0.50,weatherlink.com 1.10,2013-08-02 08:47:00,
2013-08-02 05:02:00,63.3,63.0,30.02,East,86,0.0,2.0,98,0.00,,,0.50,weatherlink.com 1.10,2013-08-02 09:02:00,
2013-08-02 05:17:00,63.4,63.0,30.02,East,86,1.0,2.0,99,0.00,,,0.50,weatherlink.com 1.10,2013-08-02 09:17:00,
2013-08-02 05:32:00,63.0,63.0,30.03,SSE,166,1.0,3.0,98,0.00,,,0.50,weatherlink.com 1.10,2013-08-02 09:32:00,
2013-08-02 05:47:00,62.8,62.0,30.04,South,189,0.0,4.0,98,0.00,,,0.50,weatherlink.com 1.10,2013-08-02 09:47:00,
2013-08-02 06:02:00,62.6,62.0,30.04,NNW,332,1.0,2.0,98,0.00,,,0.50,weatherlink.com 1.10,2013-08-02 10:02:00,
2013-08-02 06:17:00,62.3,62.0,30.05,NNW,339,0.0,2.0,98,0.00,,,0.50,weatherlink.com 1.10,2013-08-02 10:17:00,
2013-08-02 06:32:00,62.1,62.0,30.05,NNW,339,0.0,1.0,98,0.00,,,0.50,weatherlink.com 1.10,2013-08-02 10:32:00,
2013-08-02 06:47:00,62.3,62.0,30.05,NW,322,0.0,3.0,99,0.00,,,0.50,weatherlink.com 1.10,2013-08-02 10:47:00,
2013-08-02 07:02:00,62.2,62.0,30.06,SE,141,0.0,2.0,99,0.00,,,0.50,weatherlink.com 1.10,2013-08-02 11:02:00,
2013-08-02 07:17:00,62.3,62.0,30.06,SE,141,0.0,1.0,99,0.00,,,0.50,weatherlink.com 1.10,2013-08-02 11:17:00,
2013-08-02 07:32:00,62.6,62.0,30.06,SSW,206,0.0,2.0,99,0.00,,,0.50,weatherlink.com 1.10,2013-08-02 11:32:00,
2013-08-02 07:47:00,63.7,64.0,30.06,SW,216,0.0,0.0,99,0.00,,,0.50,weatherlink.com 1.10,2013-08-02 11:47:00,
2013-08-02 08:02:00,64.6,64.0,30.07,SW,222,0.0,2.0,98,0.00,,,0.50,weatherlink.com 1.10,2013-08-02 12:02:00,
2013-08-02 08:17:00,66.0,63.0,30.07,SSW,203,0.0,3.0,91,0.00,,,0.50,weatherlink.com 1.10,2013-08-02 12:17:00,
2013-08-02 08:32:00,67.7,64.0,30.07,SE,127,0.0,1.0,89,0.00,,,0.50,weatherlink.com 1.10,2013-08-02 12:32:00,
2013-08-02 08:47:00,69.5,66.0,30.07,SE,127,0.0,1.0,87,0.00,,,0.50,weatherlink.com 1.10,2013-08-02 12:47:00,
2013-08-02 09:02:00,71.6,66.0,30.08,SSW,203,0.0,4.0,81,0.00,,,0.50,weatherlink.com 1.10,2013-08-02 13:02:00,
2013-08-02 09:17:00,72.2,65.0,30.08,SSW,207,3.0,4.0,78,0.00,,,0.50,weatherlink.com 1.10,2013-08-02 13:17:00,
2013-08-02 09:32:00,72.4,65.0,30.08,SE,138,2.0,3.0,77,0.00,,,0.50,weatherlink.com 1.10,2013-08-02 13:32:00,
2013-08-02 09:47:00,73.6,66.0,30.08,SE,134,0.0,3.0,76,0.00,,,0.50,weatherlink.com 1.10,2013-08-02 13:47:00,
2013-08-02 10:02:00,74.5,66.0,30.08,NW,325,1.0,4.0,75,0.00,,,0.50,weatherlink.com 1.10,2013-08-02 14:02:00,
2013-08-02 10:18:00,74.1,65.0,30.09,SSE,163,4.0,5.0,73,0.00,,,0.50,weatherlink.com 1.10,2013-08-02 14:18:00,
2013-08-02 10:32:00,75.3,66.0,30.09,SE,144,0.0,6.0,72,0.00,,,0.50,weatherlink.com 1.10,2013-08-02 14:32:00,
2013-08-02 10:48:00,76.3,66.0,30.09,SSW,202,3.0,5.0,70,0.00,,,0.00,weatherlink.com 1.10,2013-08-02 14:48:00,
2013-08-02 11:03:00,77.8,66.0,30.09,South,186,4.0,4.0,68,0.00,,,0.00,weatherlink.com 1.10,2013-08-02 15:03:00,
2013-08-02 11:18:00,78.5,66.0,30.09,ESE,122,2.0,6.0,65,0.00,,,0.00,weatherlink.com 1.10,2013-08-02 15:18:00,
2013-08-02 11:33:00,79.3,66.0,30.09,ESE,116,1.0,4.0,63,0.00,,,0.00,weatherlink.com 1.10,2013-08-02 15:33:00,
2013-08-02 11:48:00,81.1,67.0,30.09,SSW,203,1.0,4.0,62,0.00,,,0.00,weatherlink.com 1.10,2013-08-02 15:48:00,
2013-08-02 12:03:00,81.2,66.0,30.09,South,185,1.0,7.0,60,0.00,,,0.00,weatherlink.com 1.10,2013-08-02 16:03:00,
2013-08-02 12:18:00,79.5,65.0,30.09,SSE,164,4.0,7.0,61,0.00,,,0.00,weatherlink.com 1.10,2013-08-02 16:18:00,
2013-08-02 12:33:00,79.8,65.0,30.09,SSW,212,1.0,6.0,61,0.00,,,0.00,weatherlink.com 1.10,2013-08-02 16:33:00,
2013-08-02 12:48:00,80.4,65.0,30.08,NW,312,2.0,5.0,60,0.00,,,0.00,weatherlink.com 1.10,2013-08-02 16:48:00,
2013-08-02 13:03:00,81.1,66.0,30.08,ENE,74,2.0,4.0,60,0.00,,,0.00,weatherlink.com 1.10,2013-08-02 17:03:00,
2013-08-02 13:18:00,81.3,64.0,30.07,ESE,105,0.0,6.0,56,0.00,,,0.00,weatherlink.com 1.10,2013-08-02 17:18:00,
2013-08-02 13:33:00,82.0,64.0,30.07,East,98,2.0,5.0,54,0.00,,,0.00,weatherlink.com 1.10,2013-08-02 17:33:00,
2013-08-02 13:48:00,80.4,64.0,30.08,SE,141,1.0,9.0,58,0.00,,,0.00,weatherlink.com 1.10,2013-08-02 17:48:00,
2013-08-02 14:03:00,80.1,63.0,30.08,SE,125,1.0,10.0,57,0.00,,,0.00,weatherlink.com 1.10,2013-08-02 18:03:00,
2013-08-02 14:18:00,79.8,63.0,30.08,ESE,119,2.0,8.0,56,0.00,,,0.00,weatherlink.com 1.10,2013-08-02 18:18:00,
2013-08-02 14:33:00,81.6,63.0,30.09,SSW,211,0.0,7.0,54,0.00,,,0.00,weatherlink.com 1.10,2013-08-02 18:33:00,
2013-08-02 14:48:00,82.9,63.0,30.08,SE,137,2.0,9.0,51,0.00,,,0.00,weatherlink.com 1.10,2013-08-02 18:48:00,
2013-08-02 15:03:00,82.0,63.0,30.07,SSW,213,1.0,8.0,52,0.00,,,0.00,weatherlink.com 1.10,2013-08-02 19:03:00,
2013-08-02 15:18:00,82.8,63.0,30.06,SSW,196,2.0,7.0,52,0.00,,,0.00,weatherlink.com 1.10,2013-08-02 19:18:00,
2013-08-02 15:33:00,83.7,63.0,30.05,SSW,207,3.0,5.0,49,0.00,,,0.00,weatherlink.com 1.10,2013-08-02 19:33:00,
2013-08-02 16:03:00,83.2,62.0,30.06,SSE,163,0.0,5.0,49,0.00,,,0.00,weatherlink.com 1.10,2013-08-02 20:03:00,
2013-08-02 16:18:00,82.1,63.0,30.05,ESE,117,0.0,2.0,53,0.00,,,0.00,weatherlink.com 1.10,2013-08-02 20:18:00,
2013-08-02 16:33:00,82.6,64.0,30.06,SSW,207,0.0,4.0,54,0.00,,,0.00,weatherlink.com 1.10,2013-08-02 20:33:00,
2013-08-02 16:48:00,83.3,66.0,30.06,ESE,103,1.0,5.0,56,0.00,,,0.00,weatherlink.com 1.10,2013-08-02 20:48:00,
2013-08-02 17:03:00,81.9,65.0,30.05,SSW,202,1.0,3.0,56,0.00,,,0.00,weatherlink.com 1.10,2013-08-02 21:03:00,
2013-08-02 17:18:00,81.1,67.0,30.05,SSW,201,0.0,1.0,63,0.00,,,0.00,weatherlink.com 1.10,2013-08-02 21:18:00,
2013-08-02 17:33:00,79.0,68.0,30.05,South,188,0.0,1.0,69,0.00,,,0.00,weatherlink.com 1.10,2013-08-02 21:33:00,
2013-08-02 17:48:00,76.7,66.0,30.04,South,188,0.0,2.0,69,0.00,,,0.00,weatherlink.com 1.10,2013-08-02 21:48:00,
2013-08-02 18:03:00,74.1,66.0,30.04,South,188,0.0,2.0,77,0.00,,,0.00,weatherlink.com 1.10,2013-08-02 22:03:00,
2013-08-02 18:18:00,72.8,67.0,30.04,South,188,0.0,2.0,82,0.00,,,0.00,weatherlink.com 1.10,2013-08-02 22:18:00,
2013-08-02 18:33:00,74.5,66.0,30.04,South,182,0.0,2.0,74,0.00,,,0.00,weatherlink.com 1.10,2013-08-02 22:33:00,
2013-08-02 18:48:00,75.1,67.0,30.04,East,94,0.0,2.0,75,0.00,,,0.00,weatherlink.com 1.10,2013-08-02 22:48:00,
2013-08-02 19:03:00,74.3,65.0,30.05,ESE,107,0.0,2.0,72,0.00,,,0.00,weatherlink.com 1.10,2013-08-02 23:03:00,
2013-08-02 19:18:00,73.1,64.0,30.05,ESE,107,0.0,1.0,73,0.00,,,0.00,weatherlink.com 1.10,2013-08-02 23:18:00,
2013-08-02 19:33:00,72.1,63.0,30.05,ESE,123,0.0,2.0,74,0.00,,,0.00,weatherlink.com 1.10,2013-08-02 23:33:00,
2013-08-02 19:49:00,71.2,63.0,30.06,ESE,123,0.0,2.0,74,0.00,,,0.00,weatherlink.com 1.10,2013-08-02 23:49:00,
2013-08-02 20:04:00,70.6,62.0,30.06,ESE,119,0.0,2.0,75,0.00,,,0.00,weatherlink.com 1.10,2013-08-03 00:04:00,
2013-08-02 20:19:00,70.3,64.0,30.06,SSE,164,0.0,2.0,79,0.00,,,0.00,weatherlink.com 1.10,2013-08-03 00:19:00,
2013-08-02 20:34:00,70.1,63.0,30.07,SSE,148,0.0,5.0,78,0.00,,,0.00,weatherlink.com 1.10,2013-08-03 00:34:00,
2013-08-02 20:49:00,69.4,61.0,30.07,SSE,148,0.0,1.0,75,0.00,,,0.00,weatherlink.com 1.10,2013-08-03 00:49:00,
2013-08-02 21:04:00,68.9,61.0,30.07,SSE,148,0.0,2.0,76,0.00,,,0.00,weatherlink.com 1.10,2013-08-03 01:04:00,
2013-08-02 21:19:00,69.3,61.0,30.08,SE,145,0.0,7.0,75,0.00,,,0.00,weatherlink.com 1.10,2013-08-03 01:19:00,
2013-08-02 21:34:00,69.6,62.0,30.08,ENE,69,0.0,3.0,76,0.00,,,0.00,weatherlink.com 1.10,2013-08-03 01:34:00,
2013-08-02 21:49:00,69.9,62.0,30.08,South,175,0.0,3.0,76,0.00,,,0.00,weatherlink.com 1.10,2013-08-03 01:49:00,
2013-08-02 22:04:00,69.8,62.0,30.08,NNE,18,1.0,3.0,75,0.00,,,0.00,weatherlink.com 1.10,2013-08-03 02:04:00,
2013-08-02 22:19:00,69.1,62.0,30.08,ESE,122,0.0,2.0,77,0.00,,,0.00,weatherlink.com 1.10,2013-08-03 02:19:00,
2013-08-02 22:34:00,67.9,62.0,30.08,South,171,1.0,3.0,80,0.00,,,0.00,weatherlink.com 1.10,2013-08-03 02:34:00,
2013-08-02 22:49:00,67.6,59.0,30.08,SE,126,1.0,4.0,74,0.00,,,0.00,weatherlink.com 1.10,2013-08-03 02:49:00,
2013-08-02 23:04:00,68.8,60.0,30.08,SE,135,0.0,3.0,73,0.00,,,0.00,weatherlink.com 1.10,2013-08-03 03:04:00,
2013-08-02 23:19:00,70.7,58.0,30.08,SSE,157,4.0,7.0,65,0.00,,,0.00,weatherlink.com 1.10,2013-08-03 03:19:00,
2013-08-02 23:34:00,71.3,58.0,30.09,SSE,150,1.0,5.0,63,0.00,,,0.00,weatherlink.com 1.10,2013-08-03 03:34:00,
2013-08-02 23:49:00,71.2,59.0,30.09,SSE,148,0.0,5.0,65,0.00,,,0.00,weatherlink.com 1.10,2013-08-03 03:49:00,